Location: Newark
(43.3746°N, 5.6066°E)
Time: 08:44:46
(UTC+00:00)

ISS - Visible Passes

Search period start: 12 December 2019 00:00
Search period end: 22 December 2019 00:00
Orbit: 411 x 421 km, 51.6° (Epoch: 13 December)

Date Brightness Start Highest point End Pass type
(mag) Time Alt. Az. Time Alt. Az. Time Alt. Az.
12 Dec -0.7 17:26:37 10° W 17:28:49 16° SW 17:31:01 10° S visible
13 Dec -1.3 16:37:36 10° WNW 16:40:30 27° SW 16:43:24 10° SSE visible
15 Dec 0.3 16:39:17 10° WSW 16:39:53 10° SW 16:40:30 10° SW visible
20 Dec -0.6 06:07:11 10° S 06:09:23 17° SE 06:11:36 10° E visible
